TimeEDT,TemperatureF,Dew PointF,Humidity,Sea Level PressureIn,VisibilityMPH,Wind Direction,Wind SpeedMPH,Gust SpeedMPH,PrecipitationIn,Events,Conditions,WindDirDegrees,DateUTC
12:15 AM,66.4,65.3,96,30.24,10.0,Calm,Calm,-,N/A,,Mostly Cloudy,0,2013-06-23 04:15:00
12:35 AM,67.1,65.7,95,30.24,10.0,Calm,Calm,-,N/A,,Overcast,0,2013-06-23 04:35:00
12:55 AM,68.2,66.4,94,30.23,10.0,Calm,Calm,-,N/A,,Overcast,0,2013-06-23 04:55:00
1:15 AM,68.7,66.9,94,30.23,10.0,Calm,Calm,-,N/A,,Overcast,0,2013-06-23 05:15:00
1:35 AM,68.9,67.1,94,30.22,10.0,Calm,Calm,-,N/A,,Overcast,0,2013-06-23 05:35:00
1:55 AM,68.0,66.0,93,30.20,10.0,Calm,Calm,-,N/A,,Scattered Clouds,0,2013-06-23 05:55:00
2:15 AM,66.6,65.5,96,30.20,7.0,Calm,Calm,-,N/A,,Scattered Clouds,0,2013-06-23 06:15:00
2:35 AM,66.6,65.7,97,30.20,10.0,Calm,Calm,-,N/A,,Mostly Cloudy,0,2013-06-23 06:35:00
2:55 AM,67.1,65.8,96,30.20,10.0,Calm,Calm,-,N/A,,Overcast,0,2013-06-23 06:55:00
3:15 AM,67.1,65.8,96,30.20,10.0,Calm,Calm,-,N/A,,Overcast,0,2013-06-23 07:15:00
3:35 AM,66.7,65.5,96,30.20,10.0,Calm,Calm,-,N/A,,Mostly Cloudy,0,2013-06-23 07:35:00
3:55 AM,66.6,65.7,97,30.21,10.0,Calm,Calm,-,N/A,,Mostly Cloudy,0,2013-06-23 07:55:00
4:15 AM,66.2,64.9,96,30.20,7.0,Calm,Calm,-,N/A,,Scattered Clouds,0,2013-06-23 08:15:00
4:35 AM,66.0,64.9,96,30.20,10.0,Calm,Calm,-,N/A,,Clear,0,2013-06-23 08:35:00
4:55 AM,65.1,64.2,97,30.20,7.0,Calm,Calm,-,N/A,,Clear,0,2013-06-23 08:55:00
5:15 AM,64.4,63.5,97,30.20,5.0,Calm,Calm,-,N/A,,Clear,0,2013-06-23 09:15:00
5:35 AM,64.8,64.4,99,30.20,7.0,Calm,Calm,-,N/A,,Clear,0,2013-06-23 09:35:00
5:55 AM,64.4,63.9,98,30.22,7.0,Calm,Calm,-,N/A,,Mostly Cloudy,0,2013-06-23 09:55:00
6:15 AM,65.7,64.9,98,30.22,7.0,Calm,Calm,-,N/A,,Overcast,0,2013-06-23 10:15:00
6:35 AM,66.2,65.3,97,30.23,10.0,Calm,Calm,-,N/A,,Overcast,0,2013-06-23 10:35:00
6:55 AM,66.6,65.5,96,30.23,10.0,Calm,Calm,-,N/A,,Overcast,0,2013-06-23 10:55:00
7:15 AM,67.1,65.5,95,30.23,10.0,Calm,Calm,-,N/A,,Overcast,0,2013-06-23 11:15:00
7:35 AM,68.0,66.2,94,30.24,10.0,Calm,Calm,-,N/A,,Overcast,0,2013-06-23 11:35:00
7:55 AM,69.1,66.9,93,30.25,10.0,Calm,Calm,-,N/A,,Overcast,0,2013-06-23 11:55:00
8:15 AM,70.0,67.1,91,30.26,10.0,Calm,Calm,-,N/A,,Overcast,0,2013-06-23 12:15:00
8:35 AM,71.1,67.3,88,30.26,10.0,Calm,Calm,-,N/A,,Overcast,0,2013-06-23 12:35:00
8:55 AM,73.0,68.2,85,30.26,10.0,Calm,Calm,-,N/A,,Scattered Clouds,0,2013-06-23 12:55:00
9:15 AM,76.6,69.1,77,30.26,10.0,Calm,Calm,-,N/A,,Scattered Clouds,0,2013-06-23 13:15:00
9:35 AM,78.1,69.3,74,30.26,10.0,SW,3.5,-,N/A,,Mostly Cloudy,230,2013-06-23 13:35:00
9:55 AM,78.3,68.9,73,30.26,10.0,Calm,Calm,-,N/A,,Mostly Cloudy,0,2013-06-23 13:55:00
10:15 AM,80.1,68.4,67,30.26,10.0,SW,3.5,-,N/A,,Mostly Cloudy,220,2013-06-23 14:15:00
10:35 AM,81.3,68.7,65,30.26,10.0,SW,3.5,-,N/A,,Scattered Clouds,220,2013-06-23 14:35:00
10:55 AM,81.5,68.7,65,30.25,10.0,Calm,Calm,-,N/A,,Scattered Clouds,0,2013-06-23 14:55:00
11:15 AM,83.5,69.1,62,30.26,10.0,WSW,3.5,-,N/A,,Mostly Cloudy,240,2013-06-23 15:15:00
11:35 AM,83.1,68.7,62,30.26,10.0,Calm,Calm,-,N/A,,Mostly Cloudy,0,2013-06-23 15:35:00
11:55 AM,83.7,68.9,61,30.25,10.0,South,3.5,-,N/A,,Scattered Clouds,190,2013-06-23 15:55:00
12:15 PM,83.7,68.0,59,30.24,10.0,WNW,4.6,-,N/A,,Mostly Cloudy,290,2013-06-23 16:15:00
12:35 PM,85.6,66.7,53,30.24,10.0,SSW,5.8,-,N/A,,Scattered Clouds,200,2013-06-23 16:35:00
12:55 PM,84.9,67.1,55,30.24,10.0,WNW,3.5,-,N/A,,Scattered Clouds,290,2013-06-23 16:55:00
1:15 PM,86.0,65.3,50,30.23,10.0,WSW,5.8,-,N/A,,Scattered Clouds,240,2013-06-23 17:15:00
1:35 PM,86.5,65.3,49,30.22,10.0,South,3.5,-,N/A,,Scattered Clouds,170,2013-06-23 17:35:00
1:55 PM,87.8,65.5,47,30.22,10.0,South,3.5,-,N/A,,Scattered Clouds,170,2013-06-23 17:55:00
2:15 PM,87.1,64.4,47,30.21,10.0,SSE,4.6,-,N/A,,Scattered Clouds,160,2013-06-23 18:15:00
2:35 PM,88.9,64.8,45,30.20,10.0,South,3.5,-,N/A,,Scattered Clouds,190,2013-06-23 18:35:00
2:55 PM,88.3,63.3,43,30.19,10.0,Calm,Calm,-,N/A,,Clear,0,2013-06-23 18:55:00
3:15 PM,89.6,62.6,40,30.19,10.0,Calm,Calm,-,N/A,,Clear,0,2013-06-23 19:15:00
3:35 PM,90.7,64.4,42,30.17,10.0,SSE,4.6,-,N/A,,Clear,160,2013-06-23 19:35:00
3:55 PM,89.4,65.3,45,30.17,10.0,Calm,Calm,-,N/A,,Scattered Clouds,0,2013-06-23 19:55:00
4:15 PM,90.7,64.8,42,30.17,10.0,Calm,Calm,-,N/A,,Mostly Cloudy,0,2013-06-23 20:15:00
4:35 PM,90.7,64.6,42,30.16,10.0,Calm,Calm,-,N/A,,Scattered Clouds,0,2013-06-23 20:35:00
4:55 PM,89.1,65.7,46,30.17,10.0,South,4.6,-,N/A,,Scattered Clouds,190,2013-06-23 20:55:00
5:15 PM,90.7,64.8,42,30.17,10.0,SSE,4.6,-,N/A,,Scattered Clouds,150,2013-06-23 21:15:00
5:35 PM,90.3,64.4,42,30.16,10.0,Calm,Calm,-,N/A,,Clear,0,2013-06-23 21:35:00
5:55 PM,89.8,64.9,44,30.17,10.0,SSE,3.5,-,N/A,,Clear,160,2013-06-23 21:55:00
6:15 PM,88.9,64.9,45,30.16,10.0,SSE,3.5,-,N/A,,Clear,160,2013-06-23 22:15:00
6:35 PM,88.5,64.9,45,30.16,10.0,Calm,Calm,-,N/A,,Clear,0,2013-06-23 22:35:00
6:55 PM,87.4,64.2,46,30.17,10.0,Calm,Calm,-,N/A,,Clear,0,2013-06-23 22:55:00
7:15 PM,86.0,68.0,55,30.17,10.0,SSE,3.5,-,N/A,,Scattered Clouds,150,2013-06-23 23:15:00
7:35 PM,84.6,68.7,59,30.17,10.0,South,3.5,-,N/A,,Scattered Clouds,180,2013-06-23 23:35:00
7:55 PM,81.9,69.8,67,30.17,10.0,SSE,5.8,-,N/A,,Clear,160,2013-06-23 23:55:00
8:15 PM,80.1,68.5,68,30.18,10.0,South,4.6,-,N/A,,Clear,170,2013-06-24 00:15:00
8:35 PM,78.6,67.5,68,30.18,10.0,South,3.5,-,N/A,,Scattered Clouds,180,2013-06-24 00:35:00
8:55 PM,77.5,67.1,70,30.18,10.0,SSE,4.6,-,N/A,,Scattered Clouds,160,2013-06-24 00:55:00
9:15 PM,76.6,66.9,72,30.19,10.0,Calm,Calm,-,N/A,,Clear,0,2013-06-24 01:15:00
9:35 PM,74.8,66.2,74,30.20,10.0,Calm,Calm,-,N/A,,Clear,0,2013-06-24 01:35:00
9:55 PM,74.8,66.6,75,30.21,10.0,Calm,Calm,-,N/A,,Clear,0,2013-06-24 01:55:00
10:15 PM,73.9,66.6,78,30.21,10.0,Calm,Calm,-,N/A,,Clear,0,2013-06-24 02:15:00
10:35 PM,73.0,66.9,81,30.21,10.0,Calm,Calm,-,N/A,,Clear,0,2013-06-24 02:35:00
10:55 PM,69.8,66.4,89,30.22,10.0,Calm,Calm,-,N/A,,Clear,0,2013-06-24 02:55:00
11:15 PM,69.8,66.7,90,30.22,10.0,Calm,Calm,-,N/A,,Clear,0,2013-06-24 03:15:00
11:35 PM,68.2,66.0,93,30.22,10.0,Calm,Calm,-,N/A,,Clear,0,2013-06-24 03:35:00
11:55 PM,68.0,66.0,93,30.22,10.0,Calm,Calm,-,N/A,,Clear,0,2013-06-24 03:55:00